PRM913D KABY-KORF

Flight info

Callsign PRM913D
Flight time 1h 11m
Altitude 35000
Route KABY/05 N0444F350 DCT DBN DCT CAE DCT NUTZE DCT DRONE KOHLS1 KORF/05
Aircraft B738/M-SDE2E3FGHIJ3J4J7RWXY/L

Departure

Time 2026-05-07 11:31
Airport Southwest Georgia Regional Airport (KABY)

Arrival

Time 2026-05-07 12:42
Airport Norfolk International Airport (KORF)
Time Latitude Longitude Altitude Speed Heading
2026-05-07 11:09 31.53569 -84.18841 200 ft 0 kts 355°
2026-05-07 11:24 31.53570 -84.18841 256 ft 0 kts 355°
2026-05-07 11:24 31.53570 -84.18851 200 ft 2 kts 259°
2026-05-07 11:24 31.53541 -84.18883 200 ft 8 kts 217°
2026-05-07 11:25 31.53494 -84.18921 209 ft 8 kts 214°
2026-05-07 11:25 31.53448 -84.18957 201 ft 8 kts 212°
2026-05-07 11:25 31.53400 -84.18986 204 ft 8 kts 207°
2026-05-07 11:25 31.53337 -84.19024 206 ft 14 kts 207°
2026-05-07 11:26 31.53244 -84.19095 202 ft 19 kts 214°
2026-05-07 11:26 31.53122 -84.19187 207 ft 23 kts 213°
2026-05-07 11:26 31.52987 -84.19288 212 ft 23 kts 213°
2026-05-07 11:26 31.52881 -84.19367 207 ft 15 kts 212°
2026-05-07 11:27 31.52808 -84.19438 204 ft 8 kts 249°
2026-05-07 11:27 31.52824 -84.19459 204 ft 9 kts 337°
2026-05-07 11:27 31.52928 -84.19488 206 ft 16 kts 346°
2026-05-07 11:27 31.53035 -84.19528 213 ft 16 kts 341°
2026-05-07 11:28 31.53113 -84.19584 202 ft 8 kts 289°
2026-05-07 11:28 31.53107 -84.19603 205 ft 3 kts 236°
2026-05-07 11:28 31.53079 -84.19637 210 ft 9 kts 225°
2026-05-07 11:28 31.53021 -84.19701 210 ft 14 kts 221°
2026-05-07 11:29 31.52950 -84.19773 209 ft 11 kts 221°
2026-05-07 11:29 31.52901 -84.19826 206 ft 9 kts 230°
2026-05-07 11:29 31.52893 -84.19852 210 ft 2 kts 276°
2026-05-07 11:29 31.52905 -84.19885 204 ft 6 kts 309°
2026-05-07 11:30 31.52933 -84.19919 211 ft 6 kts 314°
2026-05-07 11:30 31.52961 -84.19949 205 ft 2 kts 333°
2026-05-07 11:30 31.52980 -84.19946 211 ft 4 kts 20°
2026-05-07 11:30 31.53048 -84.19880 212 ft 34 kts 43°
2026-05-07 11:31 31.53444 -84.19462 200 ft 116 kts 42°
2026-05-07 11:31 31.54228 -84.18655 257 ft 179 kts 44°
2026-05-07 11:31 31.55207 -84.17652 1056 ft 192 kts 43°
2026-05-07 11:31 31.56155 -84.16482 1892 ft 206 kts 44°
2026-05-07 11:32 31.58290 -84.13609 2660 ft 262 kts 46°
2026-05-07 11:32 31.59525 -84.11942 3093 ft 275 kts 46°
2026-05-07 11:32 31.60820 -84.10203 3429 ft 294 kts 46°
2026-05-07 11:33 31.62208 -84.08353 3981 ft 307 kts 47°
2026-05-07 11:33 31.63630 -84.06463 4856 ft 310 kts 48°
2026-05-07 11:33 31.65062 -84.04564 5726 ft 312 kts 47°
2026-05-07 11:33 31.66493 -84.02673 6529 ft 316 kts 46°
2026-05-07 11:34 31.67971 -84.00725 7239 ft 322 kts 46°
2026-05-07 11:34 31.69468 -83.98755 7993 ft 325 kts 45°
2026-05-07 11:34 31.70984 -83.96760 8769 ft 330 kts 45°
2026-05-07 11:34 31.72526 -83.94737 9548 ft 335 kts 44°
2026-05-07 11:35 31.74082 -83.92697 10336 ft 338 kts 44°
2026-05-07 11:35 31.75707 -83.90571 10603 ft 362 kts 44°
2026-05-07 11:35 31.77448 -83.88296 10860 ft 383 kts 44°
2026-05-07 11:35 31.79251 -83.85935 11462 ft 389 kts 44°
2026-05-07 11:36 31.81060 -83.83551 12195 ft 393 kts 44°
2026-05-07 11:36 31.82893 -83.81125 12892 ft 398 kts 44°
2026-05-07 11:36 31.84736 -83.78684 13645 ft 401 kts 44°
2026-05-07 11:36 31.86604 -83.76214 14225 ft 406 kts 43°
2026-05-07 11:37 31.88488 -83.73722 14814 ft 409 kts 43°
2026-05-07 11:37 31.90382 -83.71217 15462 ft 411 kts 43°
2026-05-07 11:37 31.92287 -83.68696 16077 ft 414 kts 43°
2026-05-07 11:37 31.94209 -83.66153 16677 ft 417 kts 43°
2026-05-07 11:38 31.96145 -83.63590 17261 ft 421 kts 43°
2026-05-07 11:38 31.98096 -83.61007 17841 ft 424 kts 43°
2026-05-07 11:38 32.00064 -83.58399 18400 ft 427 kts 43°
2026-05-07 11:38 32.02045 -83.55772 18885 ft 431 kts 43°
2026-05-07 11:39 32.04041 -83.53123 19366 ft 434 kts 43°
2026-05-07 11:39 32.06051 -83.50454 19856 ft 437 kts 43°
2026-05-07 11:39 32.08076 -83.47762 20333 ft 440 kts 43°
2026-05-07 11:39 32.10114 -83.45051 20800 ft 444 kts 43°
2026-05-07 11:40 32.12168 -83.42317 21265 ft 447 kts 43°
2026-05-07 11:40 32.14239 -83.39559 21736 ft 450 kts 43°
2026-05-07 11:40 32.16322 -83.36781 22195 ft 453 kts 43°
2026-05-07 11:40 32.18416 -83.33988 22649 ft 456 kts 43°
2026-05-07 11:41 32.20522 -83.31176 23095 ft 459 kts 43°
2026-05-07 11:41 32.22645 -83.28339 23527 ft 462 kts 43°
2026-05-07 11:41 32.24749 -83.25526 23897 ft 464 kts 43°
2026-05-07 11:41 32.26892 -83.22657 24258 ft 467 kts 43°
2026-05-07 11:42 32.29044 -83.19774 24622 ft 469 kts 43°
2026-05-07 11:42 32.31206 -83.16877 24986 ft 471 kts 43°
2026-05-07 11:42 32.33377 -83.13964 25347 ft 473 kts 43°
2026-05-07 11:42 32.35558 -83.11036 25684 ft 475 kts 43°
2026-05-07 11:43 32.37747 -83.08095 26010 ft 478 kts 43°
2026-05-07 11:43 32.39952 -83.05130 26336 ft 481 kts 43°
2026-05-07 11:43 32.42164 -83.02154 26668 ft 483 kts 44°
2026-05-07 11:43 32.44384 -82.99164 26995 ft 485 kts 44°
2026-05-07 11:44 32.46615 -82.96156 27295 ft 487 kts 44°
2026-05-07 11:44 32.48857 -82.93132 27588 ft 490 kts 44°
2026-05-07 11:44 32.51112 -82.90086 27894 ft 492 kts 44°
2026-05-07 11:44 32.53374 -82.87029 28189 ft 494 kts 44°
2026-05-07 11:45 32.55645 -82.83959 28478 ft 496 kts 44°
2026-05-07 11:45 32.57929 -82.80875 28746 ft 498 kts 44°
2026-05-07 11:45 32.60231 -82.77783 29007 ft 501 kts 44°
2026-05-07 11:45 32.62542 -82.74687 29293 ft 502 kts 44°
2026-05-07 11:46 32.64832 -82.71617 29573 ft 504 kts 44°
2026-05-07 11:46 32.67157 -82.68497 29881 ft 505 kts 44°
2026-05-07 11:46 32.69475 -82.65381 30252 ft 503 kts 44°
2026-05-07 11:46 32.71786 -82.62269 30602 ft 501 kts 44°
2026-05-07 11:47 32.74091 -82.59160 30930 ft 501 kts 44°
2026-05-07 11:47 32.76392 -82.56056 31221 ft 501 kts 44°
2026-05-07 11:47 32.78693 -82.52949 31515 ft 501 kts 44°
2026-05-07 11:47 32.80992 -82.49841 31853 ft 500 kts 44°
2026-05-07 11:48 32.83287 -82.46737 32175 ft 500 kts 44°
2026-05-07 11:48 32.85585 -82.43627 32370 ft 502 kts 44°
2026-05-07 11:48 32.87903 -82.40489 32503 ft 506 kts 44°
2026-05-07 11:48 32.90232 -82.37334 32667 ft 509 kts 44°
2026-05-07 11:49 32.92574 -82.34156 32905 ft 510 kts 44°
2026-05-07 11:49 32.94906 -82.30986 33228 ft 509 kts 44°
2026-05-07 11:49 32.97237 -82.27814 33576 ft 508 kts 44°
2026-05-07 11:49 32.99560 -82.24650 33860 ft 508 kts 44°
2026-05-07 11:50 33.01885 -82.21484 34091 ft 508 kts 45°
2026-05-07 11:50 33.04216 -82.18307 34288 ft 509 kts 45°
2026-05-07 11:50 33.06546 -82.15128 34516 ft 509 kts 45°
2026-05-07 11:50 33.08870 -82.11954 34754 ft 508 kts 45°
2026-05-07 11:51 33.11196 -82.08775 34955 ft 509 kts 45°
2026-05-07 11:51 33.13524 -82.05591 35146 ft 510 kts 45°
2026-05-07 11:51 33.15854 -82.02401 35352 ft 510 kts 45°
2026-05-07 11:51 33.17397 -82.00287 35496 ft 510 kts 45°
2026-05-07 11:52 33.20484 -81.96054 35745 ft 511 kts 44°
2026-05-07 11:52 33.22817 -81.92850 35929 ft 511 kts 44°
2026-05-07 11:52 33.25149 -81.89646 36172 ft 510 kts 44°
2026-05-07 11:52 33.27471 -81.86451 36439 ft 509 kts 44°
2026-05-07 11:53 33.29787 -81.83262 36681 ft 508 kts 44°
2026-05-07 11:53 33.31349 -81.81111 36818 ft 508 kts 44°
2026-05-07 11:53 33.33639 -81.77955 36922 ft 510 kts 44°
2026-05-07 11:54 33.38307 -81.71516 36931 ft 513 kts 44°
2026-05-07 11:54 33.42965 -81.65073 36918 ft 511 kts 44°
2026-05-07 11:55 33.47606 -81.58641 36923 ft 509 kts 44°
2026-05-07 11:55 33.52230 -81.52223 36919 ft 508 kts 44°
2026-05-07 11:56 33.56847 -81.45805 36921 ft 508 kts 44°
2026-05-07 11:56 33.61459 -81.39384 36922 ft 508 kts 44°
2026-05-07 11:57 33.66074 -81.32945 36930 ft 509 kts 44°
2026-05-07 11:57 33.70696 -81.26485 36931 ft 511 kts 44°
2026-05-07 11:58 33.75333 -81.19992 36937 ft 513 kts 44°
2026-05-07 11:58 33.79982 -81.13468 36950 ft 515 kts 44°
2026-05-07 11:59 33.84613 -81.06960 36959 ft 516 kts 44°
2026-05-07 11:59 33.89112 -81.00178 36923 ft 520 kts 48°
2026-05-07 12:00 33.93395 -80.93139 36931 ft 522 kts 49°
2026-05-07 12:00 33.97664 -80.86061 36931 ft 522 kts 49°
2026-05-07 12:01 34.01961 -80.79008 36937 ft 522 kts 49°
2026-05-07 12:01 34.06275 -80.71966 36929 ft 522 kts 49°
2026-05-07 12:02 34.10587 -80.64926 36931 ft 521 kts 48°
2026-05-07 12:02 34.14895 -80.57893 36939 ft 521 kts 49°
2026-05-07 12:03 34.19158 -80.50872 36962 ft 522 kts 49°
2026-05-07 12:03 34.23453 -80.43800 36960 ft 522 kts 48°
2026-05-07 12:04 34.27757 -80.36707 36945 ft 523 kts 48°
2026-05-07 12:04 34.32060 -80.29602 36940 ft 524 kts 48°
2026-05-07 12:05 34.36367 -80.22476 36951 ft 525 kts 48°
2026-05-07 12:05 34.40677 -80.15328 36937 ft 526 kts 48°
2026-05-07 12:06 34.44993 -80.08157 36939 ft 527 kts 48°
2026-05-07 12:06 34.49311 -80.00968 36937 ft 527 kts 48°
2026-05-07 12:07 34.53627 -79.93768 36943 ft 528 kts 48°
2026-05-07 12:07 34.57942 -79.86554 36929 ft 528 kts 48°
2026-05-07 12:08 34.62254 -79.79333 36929 ft 528 kts 49°
2026-05-07 12:08 34.66560 -79.72105 36930 ft 528 kts 49°
2026-05-07 12:09 34.70862 -79.64870 36922 ft 528 kts 49°
2026-05-07 12:09 34.75160 -79.57626 36924 ft 528 kts 49°
2026-05-07 12:10 34.79424 -79.50427 36939 ft 528 kts 49°
2026-05-07 12:10 34.83707 -79.43179 36938 ft 527 kts 49°
2026-05-07 12:11 34.87985 -79.35925 36937 ft 527 kts 49°
2026-05-07 12:11 34.92261 -79.28661 36930 ft 527 kts 49°
2026-05-07 12:12 34.96530 -79.21393 36927 ft 527 kts 49°
2026-05-07 12:12 35.00798 -79.14112 36910 ft 527 kts 49°
2026-05-07 12:13 35.05063 -79.06822 36907 ft 527 kts 49°
2026-05-07 12:13 35.09248 -78.99637 36878 ft 507 kts 48°
2026-05-07 12:14 35.13276 -78.92710 36905 ft 498 kts 48°
2026-05-07 12:14 35.17333 -78.85757 36926 ft 507 kts 48°
2026-05-07 12:15 35.21420 -78.78730 36922 ft 512 kts 48°
2026-05-07 12:15 35.25544 -78.71606 36944 ft 514 kts 48°
2026-05-07 12:16 35.29676 -78.64450 36950 ft 515 kts 48°
2026-05-07 12:16 35.33805 -78.57288 36927 ft 514 kts 48°
2026-05-07 12:17 35.37907 -78.50156 36769 ft 507 kts 48°
2026-05-07 12:17 35.39940 -78.46615 36190 ft 508 kts 49°
2026-05-07 12:17 35.41983 -78.43061 35555 ft 512 kts 49°
2026-05-07 12:17 35.44037 -78.39486 35056 ft 512 kts 49°
2026-05-07 12:18 35.46077 -78.35925 34724 ft 508 kts 49°
2026-05-07 12:18 35.48095 -78.32394 34430 ft 503 kts 50°
2026-05-07 12:18 35.50093 -78.28895 34107 ft 499 kts 50°
2026-05-07 12:18 35.52081 -78.25414 33720 ft 497 kts 50°
2026-05-07 12:19 35.54057 -78.21951 33308 ft 494 kts 50°
2026-05-07 12:19 35.56013 -78.18519 32944 ft 490 kts 50°
2026-05-07 12:19 35.57967 -78.15087 32621 ft 486 kts 50°
2026-05-07 12:19 35.59896 -78.11697 32298 ft 482 kts 50°
2026-05-07 12:20 35.61808 -78.08333 31963 ft 478 kts 50°
2026-05-07 12:20 35.63703 -78.04995 31637 ft 474 kts 50°
2026-05-07 12:20 35.65582 -78.01684 31333 ft 470 kts 50°
2026-05-07 12:20 35.67440 -77.98406 31028 ft 465 kts 50°
2026-05-07 12:21 35.69281 -77.95155 30731 ft 461 kts 50°
2026-05-07 12:21 35.71107 -77.91928 30450 ft 457 kts 50°
2026-05-07 12:21 35.72891 -77.88772 30148 ft 454 kts 50°
2026-05-07 12:21 35.74687 -77.85592 29826 ft 450 kts 50°
2026-05-07 12:22 35.76466 -77.82438 29451 ft 447 kts 50°
2026-05-07 12:22 35.78235 -77.79302 29069 ft 445 kts 50°
2026-05-07 12:22 35.79995 -77.76178 28694 ft 442 kts 50°
2026-05-07 12:22 35.81740 -77.73077 28342 ft 439 kts 50°
2026-05-07 12:23 35.83474 -77.69993 28007 ft 436 kts 50°
2026-05-07 12:23 35.84643 -77.67925 27775 ft 434 kts 49°
2026-05-07 12:23 35.87058 -77.64047 27344 ft 428 kts 45°
2026-05-07 12:23 35.88934 -77.61219 27022 ft 424 kts 44°
2026-05-07 12:24 35.90815 -77.58425 26702 ft 422 kts 44°
2026-05-07 12:24 35.92683 -77.55642 26379 ft 419 kts 45°
2026-05-07 12:24 35.94530 -77.52873 26049 ft 417 kts 45°
2026-05-07 12:24 35.96363 -77.50102 25730 ft 416 kts 45°
2026-05-07 12:25 35.98180 -77.47341 25420 ft 414 kts 45°
2026-05-07 12:25 35.99988 -77.44582 25104 ft 412 kts 45°
2026-05-07 12:25 36.01785 -77.41834 24796 ft 410 kts 45°
2026-05-07 12:25 36.03570 -77.39101 24497 ft 408 kts 45°
2026-05-07 12:26 36.05336 -77.36393 24121 ft 402 kts 45°
2026-05-07 12:26 36.07085 -77.33709 23639 ft 400 kts 45°
2026-05-07 12:26 36.08830 -77.31031 23076 ft 398 kts 46°
2026-05-07 12:26 36.10561 -77.28375 22553 ft 395 kts 46°
2026-05-07 12:27 36.12255 -77.25770 22065 ft 392 kts 46°
2026-05-07 12:27 36.13955 -77.23156 21597 ft 388 kts 46°
2026-05-07 12:27 36.15639 -77.20564 21119 ft 385 kts 46°
2026-05-07 12:27 36.17309 -77.17991 20641 ft 382 kts 46°
2026-05-07 12:28 36.18968 -77.15434 20179 ft 379 kts 46°
2026-05-07 12:28 36.20614 -77.12895 19731 ft 376 kts 46°
2026-05-07 12:28 36.22247 -77.10374 19279 ft 374 kts 46°
2026-05-07 12:28 36.23867 -77.07871 18845 ft 371 kts 47°
2026-05-07 12:29 36.25477 -77.05382 18410 ft 369 kts 47°
2026-05-07 12:29 36.27073 -77.02913 17941 ft 367 kts 47°
2026-05-07 12:29 36.28661 -77.00455 17454 ft 364 kts 47°
2026-05-07 12:29 36.30239 -76.98010 16982 ft 362 kts 47°
2026-05-07 12:30 36.31804 -76.95584 16515 ft 359 kts 48°
2026-05-07 12:30 36.33361 -76.93167 16060 ft 357 kts 48°
2026-05-07 12:30 36.34907 -76.90767 15603 ft 355 kts 48°
2026-05-07 12:30 36.36445 -76.88378 15165 ft 353 kts 48°
2026-05-07 12:31 36.38011 -76.86050 14746 ft 350 kts 44°
2026-05-07 12:31 36.39681 -76.83875 14377 ft 345 kts 42°
2026-05-07 12:31 36.41350 -76.81792 14181 ft 334 kts 42°
2026-05-07 12:31 36.42941 -76.79808 14096 ft 316 kts 42°
2026-05-07 12:32 36.44441 -76.77924 13982 ft 299 kts 42°
2026-05-07 12:32 36.45863 -76.76122 13901 ft 285 kts 42°
2026-05-07 12:32 36.47236 -76.74377 13683 ft 280 kts 43°
2026-05-07 12:32 36.48586 -76.72658 13324 ft 276 kts 43°
2026-05-07 12:33 36.51249 -76.69242 12255 ft 284 kts 43°
2026-05-07 12:33 36.52642 -76.67454 11591 ft 291 kts 44°
2026-05-07 12:33 36.53998 -76.65597 10945 ft 297 kts 48°
2026-05-07 12:34 36.55320 -76.63602 10297 ft 301 kts 50°
2026-05-07 12:34 36.56655 -76.61538 9633 ft 303 kts 50°
2026-05-07 12:34 36.57961 -76.59516 8942 ft 304 kts 50°
2026-05-07 12:34 36.59283 -76.57476 8329 ft 302 kts 49°
2026-05-07 12:35 36.60600 -76.55451 7707 ft 300 kts 49°
2026-05-07 12:35 36.61908 -76.53446 7109 ft 297 kts 49°
2026-05-07 12:35 36.63205 -76.51460 6515 ft 294 kts 49°
2026-05-07 12:35 36.64489 -76.49495 5903 ft 291 kts 49°
2026-05-07 12:36 36.65762 -76.47549 5285 ft 288 kts 49°
2026-05-07 12:36 36.67022 -76.45621 4681 ft 286 kts 49°
2026-05-07 12:36 36.68270 -76.43711 4084 ft 283 kts 49°
2026-05-07 12:36 36.69494 -76.41836 3529 ft 272 kts 49°
2026-05-07 12:37 36.70649 -76.40064 2973 ft 257 kts 49°
2026-05-07 12:37 36.71735 -76.38399 2686 ft 235 kts 48°
2026-05-07 12:37 36.72700 -76.36918 2644 ft 206 kts 47°
2026-05-07 12:37 36.73566 -76.35592 2649 ft 191 kts 47°
2026-05-07 12:38 36.74509 -76.34491 2642 ft 183 kts 34°
2026-05-07 12:38 36.75510 -76.33514 2640 ft 183 kts 34°
2026-05-07 12:38 36.76507 -76.32552 2655 ft 180 kts 33°
2026-05-07 12:38 36.77484 -76.31606 2686 ft 173 kts 34°
2026-05-07 12:39 36.78409 -76.30707 2597 ft 164 kts 33°
2026-05-07 12:39 36.79290 -76.29852 2441 ft 159 kts 32°
2026-05-07 12:39 36.80193 -76.28978 2227 ft 164 kts 31°
2026-05-07 12:39 36.81083 -76.28115 1992 ft 160 kts 32°
2026-05-07 12:40 36.81957 -76.27268 1781 ft 159 kts 38°
2026-05-07 12:40 36.82530 -76.26705 1665 ft 158 kts 38°
2026-05-07 12:40 36.83386 -76.25871 1405 ft 155 kts 34°
2026-05-07 12:40 36.84249 -76.25039 1243 ft 159 kts 33°
2026-05-07 12:41 36.85112 -76.24208 1019 ft 153 kts 34°
2026-05-07 12:41 36.85928 -76.23410 809 ft 144 kts 34°
2026-05-07 12:41 36.86688 -76.22669 614 ft 135 kts 37°
2026-05-07 12:41 36.87645 -76.21743 353 ft 129 kts 36°
2026-05-07 12:42 36.88360 -76.21051 165 ft 131 kts 37°
2026-05-07 12:42 36.88842 -76.20581 61 ft 130 kts 36°
2026-05-07 12:42 36.89484 -76.19965 32 ft 92 kts 38°
2026-05-07 12:42 36.89821 -76.19641 26 ft 34 kts 38°
2026-05-07 12:43 36.89948 -76.19509 26 ft 9 kts 62°
2026-05-07 12:43 36.89948 -76.19482 26 ft 1 kts 118°
2026-05-07 12:43 36.89937 -76.19470 30 ft 3 kts 142°